Location: Lombard
(41.8800°N, 88.0080°W)
Time: 00:30:25
(UTC-05:00)

Gurwin Techsat 1B - Pass Details

Date: 16 May 2022
Orbit: 811 x 814 km, 98.8° (Epoch: 27 June)

Event Time Altitude Azimuth Distance (km) Brightness Sun altitude
Rises 04:41:37 0° 360° (N) 3,346 12.4 -8.7°
Reaches altitude 10° 04:44:27 10° 345° (NNW) 2,409 11.4 -8.2°
Maximum altitude 04:48:22 21° 298° (WNW) 1,743 10.1 -7.6°
Drops below altitude 10° 04:52:15 10° 250° (WSW) 2,396 10.4 -7.0°
Enters shadow 04:52:50 - 246° (WSW) 2,568 10.6 -6.9°
